Location: Downe
(51.3167°N, 0.0500°E)
Time: 10:11:46
(UTC+00:00)

Cosmos 1447 Rocket - Pass Details

Date: 17 November 2019
Orbit: 955 x 995 km, 82.9° (Epoch: 09 December)

Event Time Altitude Azimuth Distance (km) Brightness Sun altitude
Rises 04:39:42 0° 348° (NNW) 3,725 7.4 -24.7°
Reaches altitude 10° 04:42:15 10° 345° (NNW) 2,773 6.7 -24.3°
Maximum altitude 04:48:32 63° 266° (W) 1,106 4.4 -23.3°
Drops below altitude 10° 04:54:45 10° 187° (S) 2,750 6.8 -22.4°
Sets 04:57:17 0° 184° (S) 3,691 7.5 -22.0°
